Location: La Comballaz
(46.3780°N, 7.0817°E)
Time: 16:11:18
(UTC+00:00)

Envisat - Pass Details

Date: 16 December 2021
Orbit: 764 x 766 km, 98.2° (Epoch: 16 January)

Event Time Altitude Azimuth Distance (km) Brightness Sun altitude
Rises 06:24:07 0° 357° (N) 3,243 6.0 -7.5°
Reaches altitude 10° 06:27:40 10° 331° (NNW) 2,311 5.0 -7.0°
Maximum altitude 06:29:56 13° 304° (NW) 2,095 4.6 -6.6°
Drops below altitude 10° 06:32:13 10° 277° (W) 2,305 4.9 -6.3°
Sets 06:35:45 0° 251° (WSW) 3,225 5.8 -5.8°
